Погода в Красной Поляне

Россия / Ростовская область     46°07′16″N   41°29′48″E
темп.,
°C
ветер,
м/с
пор.,
м/с
влажн.,
%
обл.,
%
осадки,
мм/ч
давл.,
гПа
погр.,
м
15 мая, сб
сб1500:00+18юв2282100 0.0 101115
03:00+17вюв228789 0.0 101116
06:00+18зюз118610 0.0 101128
09:00+23сз34750 0.0 1013507
12:00+26сз336711 0.0 1013972
15:00+28ссз23605 0.0 10121378
18:00+27св24745 0.0 1012174
21:00+21вюв1185100 0.2 101211
16 мая, вс
вс1600:00+19с22895 0.3 101119
03:00+18св22915 0.3 101118
06:00+18всв23885 0.0 101082
09:00+21в46567 0.0 1010382
12:00+25в565325 0.0 1009779
15:00+28вюв6957100 0.0 10071238
18:00+25в386326 0.0 1005180
21:00+20в6155547 0.0 1005304
17 мая, пн
пн1700:00+18в61450100 0.0 1005341
03:00+17в61453100 0.0 1004299
06:00+15в51366100 0.0 1005276
09:00+21вюв5759100 0.0 1006426
12:00+25ю11535 0.0 1007909
15:00+26сз44575 0.0 10071186
18:00+24з4675100 0.0 1008203
21:00+19з5118599 0.1 1009375
18 мая, вт
вт1800:00+17зюз41196100 2.8 1010436
03:00+16зсз7139198 4.6 1010478
06:00+15з4109599 0.3 1012418
09:00+18зсз5774100 0.3 1012608
12:00+21зсз4563100 0.0 10121133
15:00+23з5559100 0.0 10121437
18:00+21зсз367164 0.1 1012361
21:00+17зюз22813 0.1 101319
19 мая, ср
ср1900:00+15зюз348925 0.0 101256
03:00+14зюз22920 0.0 101321
06:00+15ююз23885 0.0 101492
09:00+20юз22655 0.0 1014500
12:00+24юз345398 0.0 10141289
15:00+25зюз3451100 0.0 10131625
18:00+24с22655 0.0 101398
21:00+17ссв348542 0.3 101350